Location: General Nathan Twining Observatory
(34.5931°N, 106.8201°W)
Time: 21:30:19
(UTC-06:00)

Daily predictions for brighter satellites

Satellite Brightness Start Highest point End
(mag) Time Altitude Azimuth Time Altitude Azimuth Time Altitude Azimuth
ATLAS 5 CENTAUR R/B 2.5 20:26:42 10° NNW 20:32:51 82° ENE 20:39:21 10° SSE
Okean 1-7 3.8 20:30:41 10° NNW 20:34:55 56° W 20:39:09 10° S
Cosmos 1408 4.4 20:33:42 10° ESE 20:35:39 14° E 20:37:36 10° NE
Cosmos 1782 3.7 20:33:14 10° NNE 20:36:51 31° E 20:40:27 10° SE
Centaur AC-119 3.3 20:37:25 10° WSW 20:39:58 18° SSW 20:41:34 10° SE
IUS-26 SRM-1 4.0 20:39:23 10° SSW 20:40:06 11° S 20:40:48 10° SSE
Cosmos 2184 Rocket 4.0 20:34:34 10° S 20:40:40 72° E 20:46:50 10° N
Cosmos 1356 Rocket 3.9 20:40:10 10° SSW 20:44:22 69° W 20:48:39 10° N
Cosmos 2056 Rocket 4.1 20:40:27 10° SSW 20:45:33 62° WNW 20:50:38 10° N
CZ-4 DEB 3.7 20:43:05 10° SE 20:45:53 29° ENE 20:48:41 10° NNE
Atlas Centaur 2 1.9 20:48:43 10° WSW 20:52:12 35° S 20:55:08 12° SE
Cosmos 1825 3.3 20:49:44 10° SE 20:52:53 25° E 20:56:02 10° NE
GPS 2-05 Rocket1 3.0 20:49:16 10° W 20:53:02 81° N 20:56:43 10° E
Cosmos 1939 Rocket 4.1 20:51:52 11° ESE 20:54:49 23° ENE 20:57:57 10° NNE
Meteor 2-6 Rocket 4.4 20:50:06 10° N 20:55:56 59° E 21:01:36 10° SSE
Meteor 2-10 Rocket 3.9 20:51:43 10° N 20:57:30 79° W 21:03:03 10° S
Cosmos 1844 Rocket 3.2 20:52:58 10° SSW 20:58:35 66° WNW 21:04:13 10° NNE
SL-27 R/B 2.5 20:55:14 10° NNW 20:58:53 87° WSW 21:02:24 10° SSE
Cosmos 2278 Rocket 2.2 20:55:24 10° S 21:00:56 60° ESE 21:06:32 10° NNE
BREEZE-M DEB (TANK) 2.1 20:59:16 10° NW 21:01:17 62° NE 21:04:01 15° ESE
Cosmos 1674 Rocket 3.6 20:57:42 10° N 21:02:08 68° E 21:06:30 10° SSE
FENGYUN 3A 3.9 20:57:12 10° S 21:02:35 72° WSW 21:07:58 10° NNW
COSMOS 2406 3.6 20:57:16 10° NNW 21:02:58 67° WSW 21:08:36 10° S
ALOS 2.9 21:00:13 10° S 21:04:49 59° W 21:09:26 10° NNW
ERBS 4.4 21:02:16 10° WNW 21:05:06 23° WSW 21:07:53 10° S
Cosmos 1844 4.0 21:01:23 10° SSW 21:07:07 77° WNW 21:12:57 10° NNE
Okean 2 Rocket 4.1 21:04:53 12° SE 21:08:06 27° E 21:11:48 10° NNE
USA 186 2.6 21:05:09 10° S 21:08:12 51° W 21:11:25 10° NNW
SJ-11-01 4.4 21:07:21 10° SSE 21:12:00 60° ENE 21:16:40 10° N
Cosmos 1782 Rocket 4.0 21:11:29 10° SSE 21:15:39 41° E 21:19:52 10° NNE
Envisat 3.5 21:12:11 15° SE 21:16:00 42° ENE 21:20:47 10° N
OAO 1 Rocket 4.4 21:11:25 10° WSW 21:16:43 73° SSE 21:21:51 11° E
SEDSat Delta rocket 3.5 21:12:34 10° SW 21:16:48 39° SSE 21:19:11 20° ESE
Resurs 01 Rocket 4.5 21:14:33 10° SW 21:16:57 14° W 21:19:20 10° WNW
Sich 1 Rocket 4.0 21:16:54 10° SSW 21:21:27 70° W 21:26:02 10° N
OAO 3 Rocket 3.3 21:16:50 10° WSW 21:21:44 62° SSE 21:25:52 14° E
Cosmos 2082 Rocket 3.7 21:19:57 10° N 21:24:09 21° ENE 21:26:48 15° E
COSMOS 2487 2.9 21:23:50 10° N 21:27:20 47° ENE 21:28:46 29° SE
ERS-1 Rocket 2.9 21:22:57 12° SSE 21:27:37 85° ENE 21:32:40 10° NNW
Cosmos 1420 Rocket 3.9 21:22:40 10° S 21:27:51 65° ESE 21:33:01 10° NNE
APEX 3.3 21:25:15 10° S 21:28:50 60° ESE 21:33:31 10° NNE
Nadezhda 3 Rocket 4.0 21:24:32 10° N 21:30:55 74° E 21:36:33 14° SSE
Cosmos 1975 Rocket 3.4 21:29:45 10° N 21:33:54 44° E 21:35:40 29° SE
Cosmos 407 Rocket 4.1 21:32:24 10° NNW 21:37:34 55° WSW 21:42:27 12° S
Cosmos 1140 Rocket 3.7 21:32:43 10° N 21:37:44 50° ENE 21:40:09 28° SE
ISS -0.2 21:35:35 10° WNW 21:37:45 16° NNW 21:39:55 10° NNE
DNEPR-1 R/B 4.4 21:33:09 10° NNW 21:38:02 40° NE 21:39:53 27° ESE
Cosmos 2297 3.7 21:32:55 10° S 21:38:30 61° ESE 21:44:09 10° NNE
Cosmos 1908 Rocket 4.3 21:35:52 10° SSW 21:40:09 53° W 21:44:31 10° N
Cosmos 1378 Rocket 3.5 21:38:49 10° N 21:43:09 84° W 21:45:51 22° S
Intercosmos 25 3.3 21:42:36 40° SE 21:43:14 46° E 21:46:19 10° NNE
Cosmos 1606 3.3 21:40:37 10° NNW 21:44:28 57° W 21:47:16 17° SSW
Cosmos 1862 4.2 21:41:46 10° SSW 21:45:42 50° W 21:49:42 10° N
MetOp-B 4.4 21:45:54 30° SE 21:48:16 51° ENE 21:53:27 10° N
CZ-4B R/B 3.9 21:44:04 10° NNE 21:48:32 36° E 21:49:14 34° ESE
Cosmos 1184 Rocket 3.5 21:46:22 12° SSW 21:49:15 53° W 21:52:32 10° N
H-2A R/B 3.8 21:51:51 17° ENE 21:52:43 17° ENE 21:56:04 10° NNE
Cosmos 1238 Rocket 2.9 21:50:53 10° NNW 21:54:24 70° W 21:56:23 29° S
EO 1 Delta rocket 4.4 21:49:09 10° N 21:54:47 68° WNW 21:59:31 10° SSW
SPOT 5 3.0 21:53:17 31° SSE 21:55:52 76° ENE 22:01:15 10° N
Abrixas 2.9 21:52:54 10° WSW 21:55:54 63° NW 21:57:03 33° NNE
Cosmos 2341 Rocket 4.3 21:50:19 10° SSW 21:56:36 70° W 22:02:51 10° N
NOSS 8 (F) 4.3 21:58:37 66° SSE 21:58:53 71° ESE 22:02:25 10° NE
deb Chang Zheng 4 4.5 21:54:43 10° N 21:59:01 51° WNW 22:03:18 10° SSW
USA 245 3.9 22:03:11 37° ENE 22:03:11 37° ENE 22:06:38 10° N
SL-8 Rocket 3.9 21:58:33 20° S 22:03:02 76° E 22:09:16 10° N
Cosmos 1242 Rocket 2.4 22:01:34 10° N 22:05:16 90° E 22:05:37 72° S
YAOGAN 6 2.5 22:07:53 66° NE 22:07:53 66° NE 22:11:10 10° N
Lacrosse 5 3.5 22:10:53 19° ENE 22:10:53 19° ENE 22:12:28 10° NE
SPOT 1/Viking Rocket 3.8 22:06:51 43° ESE 22:08:04 53° ENE 22:13:08 10° N
H-2A R/B 2.7 22:06:50 28° SSW 22:08:47 50° W 22:12:54 10° NNW
ARGOS 3.4 22:09:19 42° ESE 22:10:28 49° ENE 22:15:36 10° N
Cosmos 2151 Rocket 3.5 22:14:02 63° SE 22:14:28 69° E 22:19:00 10° NNE
Timation 2 Rocket 3.8 22:11:03 10° NNW 22:17:03 85° WSW 22:19:07 44° SSE
Cosmos 1850 Rocket 4.0 22:18:29 10° NNW 22:23:49 79° WSW 22:25:08 52° S
Centaur AC-125 4.3 22:08:35 10° WSW 22:26:20 40° S 22:27:04 39° S
BREEZE-M DEB (TANK) 2.9 22:18:42 10° NW 22:27:47 63° NNE 22:28:16 58° ENE
GPS 2-05 Rocket1 4.0 22:27:43 10° W 22:30:20 43° WNW 22:30:20 43° WNW
Cosmos 864 Rocket 4.3 22:30:23 43° S 22:32:35 88° E 22:38:46 10° N
Meteor 1-20 Rocket 4.1 22:32:19 62° ESE 22:32:41 64° E 22:38:09 10° NNE
Timation 1 Rocket 4.2 22:31:53 30° SSW 22:35:01 89° WNW 22:41:03 10° NNE
USA 229 DEB 3.8 22:28:44 10° NNW 22:35:51 69° ENE 22:37:41 50° ESE
USA 229 3.8 22:28:51 10° NNW 22:35:57 68° ENE 22:37:47 50° ESE
Cosmos 1833 Rocket 2.5 22:36:59 10° NNW 22:42:37 76° ENE 22:42:58 73° ESE
Cosmos 2366 rocket 4.2 22:41:55 35° SSW 22:44:42 69° W 22:51:02 10° N
Cosmos 1331 Rocket 3.8 22:45:46 89° NNE 22:45:46 89° NNE 22:50:56 10° NNE
CZ-4 R/B 4.0 22:45:50 10° N 22:50:27 65° WNW 22:50:35 64° W
Meteor 1-25 Rocket 4.4 22:49:12 52° SSW 22:50:37 74° W 22:56:27 10° N
Cosmos 1110 Rocket 4.3 22:53:35 55° WSW 22:54:28 64° WNW 22:59:39 10° N
SL-08 RB Rocket 4.2 22:59:45 56° WNW 22:59:45 56° WNW 23:03:51 10° NNW
Landsat 7 4.2 23:02:46 61° NNW 23:02:46 61° NNW 23:06:43 10° NNW
DMSP B5D2-2 4.3 22:57:14 10° NNE 23:01:31 59° NE 23:01:31 59° NE
Cosmos 1812 4.5 23:00:22 10° N 23:02:27 30° NNW 23:02:27 30° NNW
OAO 3 Rocket 4.1 23:00:19 10° W 23:03:42 44° W 23:03:42 44° W
Cosmos 2082 Rocket 2.7 23:03:03 10° NNW 23:08:29 49° WSW 23:08:39 49° WSW
Terra 2.7 23:19:00 48° NNW 23:19:00 48° NNW 23:22:26 10° NNW
NOSS 3-1 (C) 4.3 23:15:44 10° NNW 23:23:18 57° NE 23:24:23 53° E
USA 234 3.1 23:24:06 10° NE 23:30:40 84° NW 23:31:10 77° WSW
Lacrosse 5 rocket 4.0 23:33:05 15° N 23:33:05 15° N 23:34:04 10° N
H-2A R/B 2.8 23:32:29 49° WNW 23:32:29 49° WNW 23:36:52 10° NNW
Meteor 1-11 Rocket 4.3 23:44:05 57° NW 23:44:05 57° NW 23:48:55 10° N
Lacrosse 5 3.5 23:49:52 29° WNW 23:50:46 31° NW 23:55:17 10° NNE
Cosmos 2369 Rocket 3.1 23:53:08 43° N 23:53:08 43° N 23:56:52 10° NNE
